Location: Domicella
(40.8833°N, 14.5833°E)
Time: 10:29:10
(UTC+00:00)

ARIANE 5 R/B - Pass Details

Date: 15 May 2026
Orbit: 614 x 648 km, 98.0° (Epoch: 14 September)

Event Time Altitude Azimuth Distance (km) Brightness Sun altitude
Exits shadow 22:52:41 31° 313° (NW) 1,117 4.1 -30.1°
Drops below altitude 10° 22:55:19 10° 335° (NNW) 2,044 6.0 -30.1°
Sets 22:57:37 0° 341° (NNW) 2,961 7.1 -30.1°
